Weather History for KMRY - September, 2013

Change the Weather History Date:

Monday, September 16, 2013

  Actual Average Record
Temperature  
Mean Temperature 63 °F 61 °F  
Max Temperature 71 °F 69 °F 74 °F (2014)
Min Temperature 54 °F 53 °F 47 °F (2010)
Degree Days  
Heating Degree Days 2    
Month to date heating degree days 16  
Since 1 July heating degree days 202  
Cooling Degree Days 0    
Month to date cooling degree days 8  
Year to date cooling degree days 34  
Growing Degree Days 11 (Base 50)    
Moisture  
Dew Point 55 °F    
Average Humidity 80    
Maximum Humidity 100    
Minimum Humidity 59    
Precipitation  
Precipitation 0.00 in - 0.00 in (2015)
Month to date precipitation 0.01  
Year to date precipitation 3.26  
Since 1 July precipitation 0.11  
Sea Level Pressure  
Sea Level Pressure 29.91 in    
Wind  
Wind Speed 6 mph (WSW)    
Max Wind Speed 16 mph    
Max Gust Speed 21 mph    
Visibility 7 miles    
Events Fog    
T = Trace of Precipitation, MM = Missing Value Source: NWS Daily Summary

Daily Weather History Graph

Daily Weather History Graph

Search for Another Location

Airport or City:

Trip Planner

Search our weather history database for the weather conditions in past years. The results will help you decide how hot, cold, wet, or windy it might be!

Date:

Astronomy

Sep. 16, 2013 Rise Set
Actual Time 6:50 AM PDT 7:12 PM PDT
Civil Twilight 6:24 AM PDT 7:38 PM PDT
Nautical Twilight 5:54 AM PDT 8:08 PM PDT
Astronomical Twilight 5:23 AM PDT 8:39 PM PDT
Moon 5:22 PM PDT (9/16) 3:46 AM PDT (9/16)
Length of Visible Light 13h 13m
Length of Day
12h 22m
Waxing Gibbous, 91% of the Moon is Illuminated
Sep 16
Waxing Gibbous
Sep 19
Full
Sep 26
Last Quarter
Oct 4
New
Oct 11
First Quarter

Hourly Weather History & Observations

Time (PDT) Temp. Dew Point Humidity Pressure Visibility Wind Dir Wind Speed Gust Speed Precip Events Conditions
12:54 AM 61.0 °F 57.0 °F 87% 29.91 in 10.0 mi Calm Calm - N/A   Clear
1:54 AM 60.1 °F 57.0 °F 90% 29.91 in 10.0 mi Calm Calm - N/A   Clear
2:54 AM 57.0 °F 54.0 °F 89% 29.91 in 10.0 mi Calm Calm - N/A   Clear
3:54 AM 55.9 °F 52.0 °F 87% 29.90 in 10.0 mi East 4.6 mph - N/A   Clear
4:54 AM 55.9 °F 52.0 °F 87% 29.90 in 10.0 mi ESE 3.5 mph - N/A   Clear
5:54 AM 54.0 °F 51.1 °F 90% 29.91 in 10.0 mi Calm Calm - N/A   Clear
6:09 AM 53.6 °F 51.8 °F 94% 29.88 in 10.0 mi Calm Calm - N/A   Scattered Clouds
6:18 AM 53.6 °F 51.8 °F 94% 29.88 in 10.0 mi Calm Calm - N/A   Mostly Cloudy
6:45 AM 57.2 °F 55.4 °F 94% 29.88 in 2.5 mi Calm Calm - N/A   Overcast
6:52 AM 57.2 °F 55.4 °F 94% 29.88 in 5.0 mi Calm Calm - N/A   Overcast
6:54 AM 57.0 °F 55.9 °F 96% 29.92 in 5.0 mi Calm Calm - N/A   Overcast
7:07 AM 55.4 °F 53.6 °F 94% 29.89 in 1.8 mi Calm Calm - N/A   Overcast
7:13 AM 55.4 °F 53.6 °F 94% 29.89 in 0.2 mi Calm Calm - N/A Fog Fog
7:21 AM 55.4 °F 53.6 °F 94% 29.89 in 0.2 mi ENE 3.5 mph - N/A Fog Fog
7:44 AM 55.4 °F 55.4 °F 100% 29.89 in 0.2 mi Calm Calm - N/A Fog Fog
7:54 AM 55.9 °F 55.9 °F 100% 29.93 in 0.2 mi Calm Calm - N/A Fog Fog
8:14 AM 57.2 °F 55.4 °F 94% 29.90 in 0.2 mi Calm Calm - N/A Fog Fog
8:43 AM 57.2 °F 57.2 °F 100% 29.91 in 0.5 mi West 3.5 mph - N/A Fog Fog
8:54 AM 57.9 °F 57.0 °F 97% 29.94 in 0.2 mi Calm Calm - N/A Fog Fog
9:15 AM 57.2 °F 57.2 °F 100% 29.92 in 1.0 mi West 5.8 mph - N/A   Mist
9:27 AM 59.0 °F 57.2 °F 94% 29.92 in 2.5 mi WSW 4.6 mph - N/A   Overcast
9:34 AM 57.2 °F 57.2 °F 100% 29.92 in 3.0 mi West 3.5 mph - N/A   Overcast
9:54 AM 59.0 °F 57.0 °F 93% 29.96 in 1.0 mi Variable 3.5 mph - N/A   Overcast
10:01 AM 59.0 °F 57.2 °F 94% 29.92 in 9.0 mi WNW 4.6 mph - N/A   Overcast
10:54 AM 63.0 °F 57.0 °F 81% 29.95 in 10.0 mi West 3.5 mph - N/A   Overcast
11:13 AM 66.2 °F 57.2 °F 73% 29.92 in 10.0 mi West 5.8 mph - N/A   Scattered Clouds
11:54 AM 66.0 °F 57.0 °F 73% 29.95 in 10.0 mi WNW 6.9 mph - N/A   Clear
12:54 PM 66.0 °F 57.0 °F 73% 29.94 in 10.0 mi NW 10.4 mph - N/A   Clear
1:54 PM 69.1 °F 57.0 °F 65% 29.92 in 10.0 mi West 8.1 mph - N/A   Clear
2:54 PM 69.1 °F 55.0 °F 61% 29.91 in 10.0 mi West 10.4 mph - N/A   Clear
3:54 PM 68.0 °F 54.0 °F 61% 29.90 in 10.0 mi West 9.2 mph 17.3 mph N/A   Clear
4:54 PM 66.9 °F 55.0 °F 66% 29.90 in 10.0 mi WSW 12.7 mph - N/A   Clear
5:04 PM 66.2 °F 55.4 °F 68% 29.87 in 10.0 mi West 9.2 mph 19.6 mph N/A   Partly Cloudy
5:54 PM 64.9 °F 55.0 °F 70% 29.90 in 10.0 mi WSW 8.1 mph - N/A   Partly Cloudy
6:54 PM 64.0 °F 55.9 °F 75% 29.90 in 10.0 mi WSW 6.9 mph - N/A   Partly Cloudy
7:54 PM 62.1 °F 55.9 °F 80% 29.91 in 10.0 mi SW 9.2 mph - N/A   Clear
8:54 PM 62.1 °F 55.0 °F 78% 29.92 in 10.0 mi WSW 6.9 mph - N/A   Clear
9:54 PM 61.0 °F 55.0 °F 81% 29.94 in 10.0 mi SSW 10.4 mph - N/A   Partly Cloudy
10:54 PM 60.1 °F 55.9 °F 86% 29.94 in 10.0 mi SW 9.2 mph 19.6 mph N/A   Scattered Clouds
11:54 PM 60.1 °F 55.0 °F 83% 29.94 in 10.0 mi SW 9.2 mph - N/A   Clear